• Em Portugal
  • Lista de países
  • Para 7 dias
  • Temperatura da água
  • Mapas de satélite
  • Mapa do tempo
  • Widgets de tempo
  • user-avatar
    Iniciar Sessão

    Previsão horária em Marmaris

    Hoje, 22 Setembro, Sábado

    Tempo Temperatura Precipitação Vento Pressão Humidade
    00:00 +25°C° 0 mm 2 m/s 756 mmHg 60%
    01:00 +25°C° 0 mm 2 m/s 756 mmHg 58%
    02:00 +25°C° 0 mm 2 m/s 756 mmHg 54%
    03:00 +25°C° 0 mm 2 m/s 756 mmHg 53%
    04:00 +25°C° 0 mm 2 m/s 756 mmHg 51%
    05:00 +24°C° 0 mm 2 m/s 756 mmHg 49%
    06:00 +26°C° 0 mm 2 m/s 756 mmHg 45%
    07:00 +28°C° 0 mm 2 m/s 756 mmHg 40%
    08:00 +30°C° 0 mm 1 m/s 756 mmHg 35%
    09:00 +32°C° 0 mm 2 m/s 756 mmHg 32%
    10:00 +34°C° 0 mm 2 m/s 756 mmHg 29%
    11:00 +36°C° 0 mm 2 m/s 756 mmHg 26%
    12:00 +36°C° 0 mm 3 m/s 756 mmHg 26%
    13:00 +37°C° 0 mm 3 m/s 756 mmHg 26%
    14:00 +37°C° 0 mm 4 m/s 756 mmHg 26%
    15:00 +36°C° 0 mm 3 m/s 756 mmHg 29%
    16:00 +35°C° 0 mm 3 m/s 756 mmHg 33%
    17:00 +34°C° 0 mm 3 m/s 756 mmHg 36%
    18:00 +31°C° 0 mm 3 m/s 756 mmHg 44%
    19:00 +29°C° 0 mm 3 m/s 756 mmHg 51%
    20:00 +27°C° 0 mm 2 m/s 756 mmHg 59%
    21:00 +26°C° 0 mm 2 m/s 757 mmHg 58%
    22:00 +26°C° 0 mm 3 m/s 757 mmHg 58%
    23:00 +26°C° 0 mm 3 m/s 757 mmHg 57%

    Amanhã, 23 Setembro, Domingo

    Tempo Temperatura Precipitação Vento Pressão Humidade
    00:00 +26°C° 0 mm 3 m/s 757 mmHg 54%
    01:00 +26°C° 0 mm 3 m/s 757 mmHg 52%
    02:00 +26°C° 0 mm 3 m/s 757 mmHg 49%
    03:00 +25°C° 0 mm 3 m/s 757 mmHg 47%
    04:00 +25°C° 0 mm 3 m/s 757 mmHg 45%
    05:00 +25°C° 0 mm 3 m/s 757 mmHg 43%
    06:00 +27°C° 0 mm 3 m/s 757 mmHg 39%
    07:00 +29°C° 0 mm 3 m/s 757 mmHg 36%
    08:00 +30°C° 0 mm 2 m/s 757 mmHg 32%
    09:00 +34°C° 0 mm 2 m/s 758 mmHg 28%
    10:00 +36°C° 0 mm 2 m/s 758 mmHg 24%
    11:00 +39°C° 0 mm 2 m/s 758 mmHg 20%
    12:00 +39°C° 0 mm 3 m/s 758 mmHg 20%
    13:00 +39°C° 0 mm 3 m/s 757 mmHg 19%
    14:00 +40°C° 0 mm 4 m/s 757 mmHg 19%
    15:00 +38°C° 0 mm 3 m/s 757 mmHg 21%
    16:00 +37°C° 0 mm 3 m/s 757 mmHg 24%
    17:00 +36°C° 0 mm 3 m/s 756 mmHg 26%
    18:00 +34°C° 0 mm 3 m/s 757 mmHg 31%
    19:00 +30°C° 0 mm 2 m/s 757 mmHg 36%
    20:00 +28°C° 0 mm 2 m/s 757 mmHg 40%
    21:00 +28°C° 0 mm 2 m/s 758 mmHg 38%
    22:00 +28°C° 0 mm 2 m/s 758 mmHg 35%
    23:00 +27°C° 0 mm 2 m/s 758 mmHg 33%

    Depois de amanhã, 24 Setembro, Segunda-feira

    Tempo Temperatura Precipitação Vento Pressão Humidade
    00:00 +27°C° 0 mm 2 m/s 757 mmHg 31%
    01:00 +27°C° 0 mm 2 m/s 757 mmHg 30%
    02:00 +26°C° 0 mm 2 m/s 757 mmHg 29%
    03:00 +26°C° 0 mm 2 m/s 757 mmHg 29%
    04:00 +26°C° 0 mm 2 m/s 757 mmHg 29%
    05:00 +26°C° 0 mm 2 m/s 756 mmHg 29%
    06:00 +28°C° 0 mm 2 m/s 757 mmHg 27%
    07:00 +30°C° 0 mm 1 m/s 757 mmHg 24%
    08:00 +32°C° 0 mm 1 m/s 757 mmHg 22%
    09:00 +34°C° 0 mm 1 m/s 757 mmHg 20%
    10:00 +36°C° 0 mm 2 m/s 757 mmHg 19%
    11:00 +38°C° 0 mm 2 m/s 757 mmHg 17%
    12:00 +38°C° 0 mm 2 m/s 756 mmHg 17%
    13:00 +39°C° 0 mm 2 m/s 756 mmHg 18%
    14:00 +39°C° 0 mm 3 m/s 756 mmHg 18%
    15:00 +38°C° 0 mm 3 m/s 756 mmHg 21%
    16:00 +37°C° 0 mm 2 m/s 755 mmHg 23%
    17:00 +36°C° 0 mm 2 m/s 755 mmHg 26%
    18:00 +32°C° 0 mm 2 m/s 755 mmHg 31%
    19:00 +30°C° 0 mm 2 m/s 756 mmHg 36%
    20:00 +27°C° 0 mm 2 m/s 756 mmHg 41%
    21:00 +27°C° 0 mm 2 m/s 756 mmHg 40%
    22:00 +27°C° 0 mm 2 m/s 756 mmHg 40%
    23:00 +27°C° 0 mm 2 m/s 756 mmHg 40%

    25 Setembro, Terça-feira

    Tempo Temperatura Precipitação Vento Pressão Humidade
    00:00 +26°C° 0 mm 2 m/s 756 mmHg 40%
    01:00 +26°C° 0 mm 3 m/s 756 mmHg 39%
    02:00 +26°C° 0 mm 3 m/s 756 mmHg 38%
    03:00 +26°C° 0 mm 3 m/s 755 mmHg 37%
    04:00 +26°C° 0 mm 3 m/s 755 mmHg 37%
    05:00 +25°C° 0 mm 3 m/s 755 mmHg 36%
    06:00 +27°C° 0 mm 3 m/s 755 mmHg 33%
    07:00 +29°C° 0 mm 3 m/s 755 mmHg 30%
    08:00 +31°C° 0 mm 2 m/s 755 mmHg 27%
    09:00 +34°C° 0 mm 3 m/s 755 mmHg 23%
    10:00 +36°C° 0 mm 3 m/s 755 mmHg 20%
    11:00 +38°C° 0 mm 3 m/s 755 mmHg 17%
    12:00 +39°C° 0 mm 3 m/s 754 mmHg 18%
    13:00 +40°C° 0 mm 4 m/s 754 mmHg 18%
    14:00 +40°C° 0 mm 4 m/s 753 mmHg 18%
    15:00 +38°C° 0 mm 4 m/s 753 mmHg 20%
    16:00 +37°C° 0 mm 4 m/s 753 mmHg 23%
    17:00 +36°C° 0 mm 4 m/s 753 mmHg 26%
    18:00 +33°C° 0 mm 4 m/s 754 mmHg 32%
    19:00 +30°C° 0 mm 3 m/s 754 mmHg 38%
    20:00 +28°C° 0 mm 3 m/s 754 mmHg 45%
    21:00 +27°C° 0 mm 3 m/s 755 mmHg 48%
    22:00 +26°C° 0 mm 4 m/s 755 mmHg 50%
    23:00 +26°C° 0 mm 4 m/s 755 mmHg 53%

    26 Setembro, Quarta-feira

    Tempo Temperatura Precipitação Vento Pressão Humidade
    00:00 +25°C° 0 mm 4 m/s 755 mmHg 55%
    01:00 +23°C° 0 mm 5 m/s 755 mmHg 58%
    02:00 +23°C° 0 mm 5 m/s 754 mmHg 60%
    03:00 +22°C° 0 mm 5 m/s 755 mmHg 59%
    04:00 +21°C° 0 mm 5 m/s 755 mmHg 59%
    05:00 +21°C° 0 mm 5 m/s 755 mmHg 59%
    06:00 +21°C° 0 mm 5 m/s 755 mmHg 56%
    07:00 +22°C° 0 mm 5 m/s 755 mmHg 53%
    08:00 +22°C° 0 mm 5 m/s 755 mmHg 50%
    09:00 +25°C° 0 mm 5 m/s 755 mmHg 46%
    10:00 +27°C° 0 mm 5 m/s 755 mmHg 41%
    11:00 +29°C° 0 mm 5 m/s 755 mmHg 37%
    12:00 +29°C° 0 mm 5 m/s 755 mmHg 35%
    13:00 +30°C° 0 mm 5 m/s 754 mmHg 34%
    14:00 +30°C° 0 mm 6 m/s 754 mmHg 32%
    15:00 +29°C° 0 mm 6 m/s 754 mmHg 34%
    16:00 +28°C° 0 mm 6 m/s 753 mmHg 35%
    17:00 +27°C° 0 mm 6 m/s 753 mmHg 37%
    18:00 +24°C° 0 mm 6 m/s 754 mmHg 40%
    19:00 +22°C° 0 mm 6 m/s 754 mmHg 42%
    20:00 +20°C° 0 mm 6 m/s 754 mmHg 45%
    21:00 +20°C° 0 mm 5 m/s 754 mmHg 46%
    22:00 +20°C° 0 mm 5 m/s 753 mmHg 47%
    23:00 +19°C° 0 mm 5 m/s 753 mmHg 48%

    27 Setembro, Quinta-feira

    Tempo Temperatura Precipitação Vento Pressão Humidade
    00:00 +19°C° 0 mm 5 m/s 753 mmHg 49%
    01:00 +19°C° 0 mm 4 m/s 752 mmHg 51%
    02:00 +19°C° 0 mm 4 m/s 752 mmHg 53%
    03:00 +19°C° 0.2 mm 4 m/s 751 mmHg 54%
    04:00 +19°C° 0.2 mm 4 m/s 751 mmHg 54%
    05:00 +18°C° 0.2 mm 4 m/s 751 mmHg 55%
    06:00 +19°C° 1.2 mm 5 m/s 751 mmHg 53%
    07:00 +19°C° 1.2 mm 6 m/s 751 mmHg 52%
    08:00 +20°C° 1.2 mm 6 m/s 751 mmHg 51%
    09:00 +21°C° 1 mm 6 m/s 751 mmHg 53%
    10:00 +22°C° 1 mm 6 m/s 751 mmHg 56%
    11:00 +23°C° 1 mm 6 m/s 751 mmHg 59%
    12:00 +22°C° 0.6 mm 6 m/s 751 mmHg 66%
    13:00 +22°C° 0.6 mm 5 m/s 751 mmHg 73%
    14:00 +21°C° 0.6 mm 5 m/s 751 mmHg 81%
    15:00 +21°C° 0.3 mm 6 m/s 752 mmHg 81%
    16:00 +21°C° 0.3 mm 6 m/s 752 mmHg 81%
    17:00 +21°C° 0.3 mm 6 m/s 752 mmHg 81%
    18:00 +20°C° 0.2 mm 6 m/s 753 mmHg 83%
    19:00 +20°C° 0.2 mm 7 m/s 753 mmHg 85%
    20:00 +18°C° 0.2 mm 7 m/s 753 mmHg 87%
    21:00 +18°C° 0.3 mm 7 m/s 754 mmHg 88%
    22:00 +18°C° 0.3 mm 7 m/s 754 mmHg 88%
    23:00 +18°C° 0.3 mm 7 m/s 754 mmHg 89%
    Mostrar mais